This is the latest recevied weather packets stored in our database for station/object AF5AA. If no packets are shown the sender has not sent any weather packets the latest 10 day(s).
| Time | Temp. | Humidity | Pressure | Rain* | Wind** | Luminosity | Snow |
|---|---|---|---|---|---|---|---|
| 1777818868 | 16.67° C | 90% | 1021.8 hPa | 0 mm | - | 49 W/m² | - |
| 1777818564 | 16.11° C | 91% | 1021.7 hPa | 0 mm | - | 23 W/m² | - |
| 1777818262 | 15.56° C | 93% | 1021.8 hPa | 0 mm | - | 22 W/m² | - |
| 1777817957 | 15° C | 96% | 1021.7 hPa | 0 mm | - | 23 W/m² | - |
| 1777817655 | 15° C | 97% | 1021.9 hPa | 0 mm | - | 39 W/m² | - |
| 1777817352 | 14.44° C | 98% | 1021.6 hPa | 0 mm | - | 35 W/m² | - |
| 1777817049 | 13.89° C | 98% | 1021.8 hPa | 0 mm | - | 20 W/m² | - |
| 1777816744 | 13.33° C | 98% | 1021.9 hPa | 0 mm | - | 19 W/m² | - |
| 1777816442 | 13.33° C | 98% | 1021.8 hPa | 0 mm | - | 21 W/m² | - |
| 1777816140 | 12.78° C | 99% | 1021.8 hPa | 0 mm | - | 19 W/m² | - |
| 1777815837 | 12.78° C | 99% | 1021.8 hPa | 0 mm | - | 19 W/m² | - |
| 1777815534 | 12.22° C | 99% | 1021.7 hPa | 0 mm | - | 22 W/m² | - |
| 1777815232 | 12.22° C | 99% | 1021.6 hPa | 0 mm | - | 17 W/m² | - |
| 1777814928 | 11.67° C | 99% | 1021.7 hPa | 0 mm | - | 17 W/m² | - |
| 1777814624 | 11.67° C | 99% | 1021.7 hPa | 0 mm | - | 24 W/m² | - |
| 1777814322 | 11.11° C | 99% | 1021.5 hPa | 0 mm | - | 19 W/m² | - |
| 1777814018 | 10.56° C | 99% | 1021.5 hPa | 0 mm | - | 16 W/m² | - |
| 1777813716 | 10.56° C | 99% | 1021.5 hPa | 0 mm | - | 15 W/m² | - |
| 1777813413 | 10.56° C | 99% | 1021.5 hPa | 0 mm | - | 20 W/m² | - |
| 1777813110 | 10.56° C | 99% | 1021.5 hPa | 0 mm | - | 15 W/m² | - |
| 1777812808 | 10° C | 99% | 1021.6 hPa | 0 mm | - | 16 W/m² | - |
| 1777812504 | 10° C | 99% | 1021.3 hPa | 0 mm | - | 14 W/m² | - |
| 1777812202 | 9.44° C | 99% | 1021.4 hPa | 0 mm | - | 18 W/m² | - |
| 1777811900 | 9.44° C | 99% | 1021.3 hPa | 0 mm | - | 13 W/m² | - |
| 1777811599 | 9.44° C | 99% | 1021.5 hPa | 0 mm | - | 11 W/m² | - |
* Rain latest hour (hover to see other rain measurements)
** Current wind speed in m/s (hover to see current wind gust speed)